Location: Cella
(44.7333°N, 10.5667°E)
Time: 04:51:33
(UTC+00:00)

SJ 16-02 - Pass Details

Date: 03 March 2021
Orbit: 605 x 617 km, 75.0° (Epoch: 13 April)

Event Time Altitude Azimuth Distance (km) Brightness Sun altitude
Rises 19:35:06 0° 343° (NNW) 2,883 5.3 -26.6°
Reaches altitude 10° 19:37:22 10° 348° (NNW) 1,976 4.3 -27.0°
Enters shadow 19:39:33 28° 358° (N) 1,166 2.9 -27.3°
